Theta_e
312 310 311 311 308 307 307 308 308 308 308 307 307 307 305 302 301 304 305 307 306 305 307 308 308 309 310 310 311 313 314 315 315 312 311 313 314 313 313 312 311 312 317
312 312 310 309 308 308 308 308 308 308 308 308 307 307 307 306 303 301 302 305 307 306 305 307 308 309 311 311 311 313 314 316 315 317 312 313 315 315 317 319 322 322 320
312 311 310 309 308 308 309 308 308 308 308 308 307 306 306 306 306 305 301 301 304 306 306 305 306 308 310 311 312 312 314 314 316 318 313 314 315 315 318 318 322 323 327
311 309 308 308 309 310 308 308 308 307 307 307 306 306 306 306 305 306 306 303 300 303 306 307 306 307 309 311 311 312 312 313 315 316 319 314 316 316 317 318 319 320 322
309 309 309 308 307 306 306 306 306 306 305 305 305 305 305 305 305 305 305 306 304 300 303 306 307 307 307 309 311 312 313 314 314 315 317 318 318 317 318 318 320 321 320
309 306 306 306 306 307 308 308 308 308 308 308 308 308 307 307 306 305 305 305 305 305 300 303 307 308 307 308 309 311 313 312 313 313 315 317 318 318 318 319 319 319 319
308 309 309 309 309 308 308 308 308 307 307 308 308 307 307 307 307 307 305 304 304 305 305 301 301 306 308 308 308 310 311 312 312 312 312 313 316 319 319 319 319 318 317
307 308 308 308 308 307 307 307 307 307 306 307 307 307 306 306 306 306 305 305 304 304 304 304 302 299 304 307 308 308 309 310 311 311 311 312 312 313 315 317 319 318 318
307 307 307 307 307 307 306 305 305 305 305 305 305 305 305 305 305 306 305 305 304 303 303 303 303 303 299 302 306 307 308 308 309 309 310 310 310 311 312 313 316 317 317
307 306 307 307 307 306 305 305 305 305 304 304 305 304 304 304 304 305 305 305 304 304 303 303 302 302 302 299 299 303 306 306 307 308 308 308 309 310 310 311 311 313 315
308 307 307 307 307 306 305 304 305 305 304 304 304 304 304 304 304 304 304 304 304 304 303 303 302 302 302 301 298 298 299 300 300 300 299 298 299 304 308 308 309 309 311
308 308 307 307 307 306 304 304 304 304 304 303 303 303 303 303 303 303 303 303 303 304 304 303 303 303 302 301 300 298 296 296 295 295 295 295 295 296 297 299 302 304 305
307 307 307 307 306 304 303 304 304 304 303 302 302 303 303 303 303 303 303 303 303 303 303 303 303 303 303 301 300 299 297 296 295 294 294 294 294 294 294 294 294 295 297
307 306 306 306 305 303 303 304 304 302 302 301 302 302 302 302 302 302 302 302 303 303 303 303 303 303 303 301 300 299 299 298 295 294 294 294 293 293 293 293 293 293 294
306 306 305 304 303 303 303 303 303 302 302 302 303 303 303 303 303 303 303 302 301 302 302 302 302 303 303 302 300 299 298 298 297 294 294 293 293 293 293 293 293 293 293
306 305 304 303 302 302 303 302 302 302 303 303 303 302 302 302 302 302 302 303 303 302 301 301 302 302 302 302 301 299 298 298 299 297 294 293 293 293 293 293 292 292 292
305 304 303 302 302 302 302 301 302 303 303 303 303 302 302 302 302 301 300 300 301 302 302 302 301 301 301 301 301 300 299 299 298 297 295 293 293 293 292 292 292 292 292
305 304 303 302 302 300 297 297 299 299 299 300 300 299 299 298 299 299 299 299 299 299 300 301 302 302 300 300 300 299 299 299 299 298 295 294 293 293 292 292 292 292 291
305 304 302 301 301 298 294 293 293 293 293 293 293 292 292 292 292 293 293 293 294 296 297 299 300 301 301 300 299 299 299 299 298 298 296 294 293 292 292 292 292 292 292
304 303 302 301 301 296 293 293 294 294 294 293 293 292 292 292 292 292 292 292 292 292 292 293 296 299 299 300 300 299 298 298 298 298 297 295 294 293 292 291 291 292 292
303 302 301 301 301 294 296 297 297 294 294 293 292 292 291 291 291 291 291 291 292 292 292 292 292 292 296 299 300 299 298 298 297 297 297 296 294 293 292 292 291 291 292
303 302 301 300 300 295 297 298 297 293 292 292 292 291 291 290 290 290 290 290 290 290 290 291 291 292 292 293 298 299 299 297 296 297 297 296 295 294 292 292 291 292 292
301 300 300 298 296 296 297 296 292 291 291 291 291 290 290 290 290 289 289 289 289 289 289 290 290 290 290 291 291 297 298 298 297 296 295 295 295 295 294 292 291 292 292
300 299 298 297 297 294 293 293 293 291 290 290 290 290 290 290 290 289 289 289 289 289 289 289 289 289 289 290 290 292 297 298 298 297 295 294 293 294 294 293 292 292 292
299 297 296 296 295 294 294 294 292 290 290 290 290 290 290 290 290 289 289 289 289 289 289 289 288 288 289 289 289 291 295 295 296 296 295 293 291 292 293 293 292 292 292
297 296 295 294 293 293 292 292 291 290 290 290 290 290 290 290 289 289 289 289 289 289 289 289 288 288 288 288 289 289 293 294 294 294 294 293 292 291 292 292 292 292 291
Wind_Speed
6 8 6 4 3 3 5 9 12 14 14 15 14 12 12 13 13 14 14 14 14 14 14 15 16 18 19 18 16 18 19 18 20 23 23 19 15 11 15 18 16 17 11
7 5 3 2 2 4 8 13 15 14 15 15 15 14 15 14 14 14 15 15 15 15 14 15 16 17 17 18 16 17 21 21 22 24 17 15 11 19 14 4 5 10 9
3 1 1 2 5 8 12 13 13 13 13 14 14 14 15 15 15 15 15 15 16 16 16 16 15 15 16 16 16 15 17 20 22 21 9 8 8 24 15 7 4 5 8
3 3 3 4 7 10 12 13 12 12 12 13 14 15 16 18 18 18 18 16 16 16 16 16 15 15 15 15 14 15 15 16 16 18 15 9 14 9 8 12 6 4 7
4 3 5 8 9 9 11 11 11 11 12 13 15 16 17 18 19 19 19 19 17 17 16 16 15 15 14 14 14 12 12 14 15 14 18 14 10 10 7 6 4 8 5
4 5 8 10 10 11 11 12 12 13 13 13 14 16 17 18 19 19 20 20 19 18 17 17 16 15 15 14 14 13 12 12 13 12 12 12 10 11 7 7 4 4 4
7 8 10 11 11 12 12 13 14 15 15 14 15 16 18 20 22 21 21 21 20 18 17 18 18 16 16 15 15 14 13 13 13 13 12 11 9 9 9 8 6 7 9
5 7 9 9 9 11 15 16 19 21 19 17 17 19 21 23 23 21 22 21 20 20 19 19 19 18 18 17 17 16 16 15 14 14 14 13 11 10 10 10 11 10 8
3 5 5 7 11 15 17 19 20 20 21 21 23 23 22 22 22 21 21 21 20 20 20 20 20 19 19 20 19 19 18 18 17 16 17 17 15 14 14 13 11 11 10
3 4 2 4 12 18 18 19 20 21 22 23 22 22 22 21 21 21 21 21 21 21 20 20 20 20 21 21 21 21 20 21 20 20 20 20 19 19 17 17 16 16 16
3 3 2 6 14 20 21 22 23 24 24 23 22 22 22 22 22 23 22 22 22 21 21 22 22 22 22 21 22 22 21 21 21 21 22 21 21 20 20 20 19 18 19
4 4 5 9 16 23 25 25 25 24 23 23 23 23 22 23 23 22 21 20 21 21 22 23 24 23 22 21 22 22 21 21 21 20 21 21 20 20 19 19 20 20 20
6 6 7 12 19 25 24 24 23 23 23 24 24 23 23 23 23 23 23 22 23 23 23 23 24 24 23 23 22 23 22 22 22 21 21 19 20 20 20 20 19 19 19
6 5 9 14 23 24 24 24 24 23 23 22 22 21 21 21 22 23 23 22 22 23 23 24 26 25 24 24 23 23 23 23 23 23 22 21 20 20 20 20 20 20 20
4 6 12 20 23 24 24 24 22 22 21 20 18 18 19 19 20 21 22 22 22 22 23 24 23 24 25 24 23 22 23 25 24 24 23 22 21 20 20 21 20 20 20
4 9 16 19 22 24 25 24 23 20 18 16 16 16 18 19 20 21 22 22 22 22 22 22 23 24 23 23 23 22 23 25 26 26 23 23 23 21 21 21 21 21 21
6 14 17 21 22 22 22 22 21 19 18 18 18 19 20 20 20 22 22 23 24 23 24 24 24 24 23 21 22 22 24 25 25 25 25 24 23 22 22 21 22 22 22
10 16 19 21 18 17 17 18 18 18 18 19 19 19 21 22 23 24 24 25 25 25 26 26 25 25 23 22 22 20 22 25 26 25 24 25 23 23 23 22 23 24 22
14 18 20 19 19 18 18 17 16 16 17 18 19 20 22 23 24 24 25 26 27 28 27 27 26 26 25 23 22 21 22 24 25 25 24 24 24 23 22 25 25 25 24
16 17 20 19 19 17 15 14 15 17 18 19 20 21 22 23 24 25 26 27 27 28 29 29 27 26 27 25 24 21 23 25 24 24 24 24 26 24 23 26 26 27 25
18 21 23 22 20 17 15 16 19 20 22 23 24 24 24 24 24 25 26 26 27 29 29 30 30 28 25 27 26 23 23 24 26 26 26 24 23 25 25 26 28 28 23
26 26 24 19 18 19 18 19 21 21 22 23 25 26 26 25 25 25 26 27 27 28 30 31 32 32 30 26 26 27 25 24 27 29 27 25 23 23 24 26 27 26 24
24 22 18 19 18 19 23 23 20 22 22 23 24 26 27 28 28 29 29 30 30 30 31 32 34 36 35 34 27 26 27 27 27 29 29 25 24 23 26 26 26 25 27
25 19 19 20 22 21 20 22 24 25 24 25 26 28 29 31 31 31 30 31 31 31 31 32 34 36 38 38 35 30 27 26 28 28 28 27 25 27 26 26 24 28 30
19 18 20 21 23 24 26 27 29 27 27 29 30 32 33 34 35 34 34 34 34 31 33 33 34 36 38 36 35 33 31 31 29 28 27 25 28 28 31 28 27 31 31
20 23 24 26 28 29 31 32 32 32 33 35 36 37 38 38 37 36 37 34 34 33 33 33 34 36 35 35 33 32 30 31 30 30 33 30 30 30 30 32 32 34 33
Wind_Direction
185 191 218 242 280 329 337 337 334 330 330 332 325 324 331 339 341 343 343 342 336 331 328 326 331 340 340 340 341 344 347 1 356 338 339 354 344 310 278 269 242 237 229
147 172 204 258 314 339 333 335 331 329 328 327 328 328 329 334 335 335 336 337 336 334 329 324 326 333 340 343 348 357 350 351 358 347 340 344 13 358 349 291 210 204 205
135 117 26 348 342 343 336 337 339 339 334 328 330 329 329 329 328 329 327 327 332 334 331 326 324 327 331 340 344 345 353 350 3 1 337 338 329 342 3 2 13 167 158
107 83 38 3 337 331 332 331 337 342 343 344 341 337 336 336 334 328 325 325 323 324 325 326 327 322 323 326 335 339 347 349 355 359 357 328 314 320 340 3 21 86 156
91 53 353 337 340 346 351 351 357 358 352 349 343 340 337 333 330 328 322 318 318 318 317 319 320 321 318 317 321 327 333 343 345 351 352 355 350 339 305 325 359 61 92
87 59 55 53 50 37 24 17 14 7 358 352 348 342 338 334 328 323 319 317 314 312 310 307 308 313 314 313 314 312 317 327 333 340 344 352 348 336 328 327 336 333 322
116 85 68 59 47 26 12 359 351 352 343 332 330 328 328 326 322 325 319 316 315 312 307 303 301 301 302 305 303 306 306 308 314 320 329 334 335 328 314 304 311 303 281
121 88 72 53 28 7 354 345 339 337 337 329 321 319 318 317 314 314 314 314 313 313 310 303 299 298 294 295 296 298 299 298 297 302 307 309 309 308 300 296 296 295 276
148 115 71 30 11 354 346 339 336 336 332 327 321 319 319 319 316 311 307 311 311 308 307 307 303 297 292 290 288 288 289 289 290 290 291 293 297 296 293 287 274 269 272
171 158 135 21 3 355 345 338 338 338 334 329 326 324 324 320 315 312 308 304 306 302 300 302 305 301 293 289 286 285 285 285 286 287 286 284 282 281 276 272 272 265 260
178 198 224 335 343 346 342 340 337 335 333 331 331 329 327 324 322 320 315 307 302 303 299 297 298 298 295 288 285 285 285 285 286 286 284 284 282 278 276 273 267 262 259
216 240 281 323 337 340 338 336 335 333 331 331 330 330 327 325 324 325 325 315 309 306 301 296 295 294 291 287 281 282 283 284 285 286 284 285 281 280 276 271 267 265 262
238 255 297 321 336 336 335 335 336 335 333 333 332 333 333 332 332 331 328 322 315 311 307 302 299 297 290 283 279 277 281 283 283 283 281 280 279 278 276 273 269 265 260
262 291 326 329 334 334 333 333 335 335 334 335 336 338 340 342 338 335 333 330 325 319 313 305 299 297 293 285 279 278 279 282 282 281 281 279 276 276 275 272 270 267 263
246 322 336 336 332 330 330 332 334 336 337 340 344 348 351 350 348 346 345 341 335 330 326 319 313 304 296 290 284 278 279 280 280 280 280 280 279 276 274 272 269 267 265
283 331 337 334 333 331 331 334 337 340 342 344 346 345 344 349 354 357 353 347 346 343 337 330 325 317 304 295 288 279 275 276 275 275 275 275 274 273 273 273 270 266 260
311 333 332 333 330 324 322 325 327 328 330 334 337 335 334 336 339 344 347 350 353 350 347 343 335 329 320 305 295 286 276 274 272 270 272 272 270 270 268 268 268 266 262
319 324 325 325 320 318 318 318 317 318 320 322 326 329 329 329 331 332 335 337 339 343 345 345 343 338 333 321 306 293 282 277 275 270 268 270 270 268 267 266 263 263 263
310 316 320 323 320 314 311 312 313 316 318 320 326 333 334 330 331 331 332 333 332 333 334 337 339 340 339 330 318 304 292 284 279 274 267 266 267 266 265 264 263 263 261
304 310 320 318 314 308 306 315 323 326 325 326 330 333 332 331 331 331 332 332 330 329 329 327 329 331 331 333 327 313 300 292 287 280 270 264 266 266 264 261 261 259 259
312 313 314 309 307 297 299 309 318 321 321 320 320 323 325 326 327 328 330 331 331 329 329 327 326 328 325 325 328 322 306 297 291 284 279 269 263 266 264 261 260 261 263
314 310 304 295 298 292 299 308 314 316 315 312 312 315 320 324 326 325 326 326 327 327 326 325 322 323 326 323 319 318 313 304 293 289 286 279 267 263 261 261 260 260 258
310 309 296 295 297 293 305 306 311 314 312 309 310 315 318 320 322 321 324 324 326 326 326 325 324 322 320 319 323 313 313 309 298 290 288 281 271 272 262 253 250 248 249
306 306 301 301 303 305 306 309 315 320 314 310 311 314 316 316 317 318 318 318 322 323 324 324 325 323 321 319 320 314 310 308 302 296 289 281 276 277 269 258 242 240 243
305 309 307 305 304 307 307 308 313 317 313 311 313 313 312 312 314 314 315 315 315 318 319 321 321 319 316 318 315 314 309 309 308 300 285 269 268 271 267 260 246 235 238
304 304 306 307 307 306 306 305 307 311 312 310 309 310 310 311 312 311 309 307 307 308 309 312 314 313 309 307 306 303 293 293 300 293 285 275 265 265 264 264 254 240 236